DateTimeUTC,F1_A11,F1_S11,BsB_S11,BsG_S11,BsR_S11,BbsB_S11,BbsG_S11,BbsR_S11,BaB_A11,BaG_A11,BaR_A11,Tu_S11,T_S11,Uu_S11,U_S11,P_S11,T1_A11
2021-03-09T20:00:00Z,00000200,21000000,,,,,,,-000.04,-000.05,-000.30,17.2,24.8,,00.0,0644.1,31.0
2021-03-09T20:01:00Z,00000200,21000000,,,,,,,0000.30,0000.39,0000.79,17.1,24.8,,00.0,0644.1,30.9
2021-03-09T20:02:00Z,00000200,21000000,,,,,,,0000.04,0000.08,-000.22,17.1,24.8,,00.0,0644.0,30.9
2021-03-09T20:03:00Z,00000200,61000000,,,,,,,0000.56,0000.54,0000.47,17.1,24.8,,00.0,0644.0,31.0
2021-03-09T20:04:00Z,00000200,41000000,0000.22,-000.03,0000.13,0000.37,0000.03,0000.00,0000.10,-000.06,-000.25,17.2,24.6,,00.0,0644.9,30.9
2021-03-09T20:05:00Z,00000200,01000000,0000.25,-000.14,0000.06,0000.29,-000.04,0000.13,-000.14,-000.21,-000.07,17.3,24.5,,00.0,0644.9,30.9
2021-03-09T20:06:00Z,00000200,01000000,-000.00,0000.14,0000.09,-000.02,-000.03,0000.13,0000.53,0000.36,0000.45,17.3,24.5,,00.0,0644.9,30.9
2021-03-09T20:07:00Z,00000200,01000000,-000.18,0000.02,0000.15,0000.29,0000.09,-000.20,-000.18,0000.34,0000.24,17.2,24.5,,00.0,0644.9,30.9
2021-03-09T20:08:00Z,00000200,01000000,0000.10,0000.38,-000.01,-000.15,0000.07,-000.01,0000.07,-000.35,-000.04,17.2,24.5,,00.0,0644.9,30.9
2021-03-09T20:09:00Z,00000200,01000000,-000.66,-000.14,-000.01,-000.44,0000.04,0000.16,0000.28,0000.37,0000.12,17.2,24.4,,00.0,0644.9,30.9
2021-03-09T20:10:00Z,00000200,01000000,-000.59,-000.06,0000.16,0000.04,-000.03,0000.39,0000.33,0000.28,-000.41,17.2,24.4,,00.0,0644.9,30.9
2021-03-09T20:11:00Z,00000200,01000000,-000.12,0000.10,0000.05,0000.23,0000.06,0000.06,-000.38,-000.12,0000.07,17.2,24.4,,00.0,0644.9,30.9
2021-03-09T20:12:00Z,00000200,01000000,-000.18,0000.07,-000.19,0000.21,-000.01,0000.12,-000.21,-000.38,-000.03,17.2,24.4,,00.0,0644.9,30.9
2021-03-09T20:13:00Z,00000200,01000000,-000.28,0000.13,0000.09,-000.07,0000.05,0000.12,-000.66,0000.01,-000.04,17.1,24.4,,00.0,0644.9,30.9
2021-03-09T20:14:00Z,00000200,01000000,0000.16,0000.16,0000.06,0000.09,-000.02,0000.20,0000.30,-000.23,0000.05,17.2,24.4,,00.0,0644.9,30.9
2021-03-09T20:15:00Z,00000200,01000000,-000.10,0000.11,0000.11,-000.01,-000.09,-000.09,-000.33,-000.34,-000.45,17.2,24.4,,00.0,0644.9,30.9
2021-03-09T20:16:00Z,00000200,01000000,0000.14,0000.17,0000.01,-000.08,-000.01,0000.18,0000.26,0000.24,0000.18,17.3,24.4,,00.0,0644.9,31.0
2021-03-09T20:17:00Z,00000200,01000000,0000.15,0000.07,0000.04,-000.64,0000.07,0000.04,-000.01,0000.37,0000.33,17.4,24.4,,00.0,0644.9,31.0
2021-03-09T20:18:00Z,00000200,01000000,-000.20,0000.08,0000.12,0000.02,0000.02,0000.34,0000.42,0000.37,0000.35,17.5,24.5,,00.0,0644.9,31.0
2021-03-09T20:19:00Z,00000200,01000000,0000.22,0000.16,-000.19,-000.14,0000.05,0000.11,0000.19,-000.22,0000.02,17.6,24.5,,00.0,0644.9,31.0
2021-03-09T20:20:00Z,00000200,01000000,-000.29,0000.13,0000.11,-000.34,0000.05,0000.25,-000.17,0000.08,-000.00,17.6,24.6,,00.0,0644.9,31.0
2021-03-09T20:21:00Z,00000200,01000000,-000.23,0000.10,-000.19,0000.11,0000.19,-000.20,-000.37,-000.39,-000.09,17.6,24.6,,00.0,0645.0,31.0
2021-03-09T20:22:00Z,00000200,01000000,0000.04,-000.03,-000.11,-000.07,0000.13,0000.09,-000.16,0000.05,-000.56,17.6,24.6,,00.0,0645.0,31.0
2021-03-09T20:23:00Z,00000200,01000000,-000.11,-000.01,-000.18,0000.30,0000.26,-000.03,-000.02,-000.56,0000.13,17.6,24.6,,00.0,0645.0,31.0
2021-03-09T20:24:00Z,00000200,01000000,-000.19,0000.23,-000.24,-000.02,-000.00,-000.00,-000.10,0000.17,0000.13,17.6,24.6,,00.0,0645.0,31.0
2021-03-09T20:25:00Z,00000200,01000000,0000.02,0000.27,-000.04,0000.18,0000.04,0000.09,0000.02,-000.11,-000.13,17.5,24.6,,00.0,0645.0,31.0
2021-03-09T20:26:00Z,00000200,01000000,-000.15,0000.16,-000.02,0000.13,0000.19,0000.01,-000.27,-000.21,-000.43,17.5,24.6,,00.0,0645.1,31.0
2021-03-09T20:27:00Z,00000200,01000000,-000.32,0000.01,-000.07,0000.32,0000.04,-000.03,-000.18,0000.16,0000.11,17.5,24.6,,00.0,0645.1,31.0
2021-03-09T20:28:00Z,00000200,01000000,-000.31,-000.04,-000.05,0000.28,0000.05,-000.13,0000.42,0000.15,0000.03,17.5,24.5,,00.0,0645.1,31.0
2021-03-09T20:29:00Z,00000200,01000000,0000.06,0000.26,-000.12,-000.09,0000.02,0000.05,0000.27,0000.33,0000.20,17.5,24.5,,00.0,0645.1,31.0
2021-03-09T20:30:00Z,00000200,01000000,-000.63,-000.01,0000.22,0000.07,0000.07,-000.07,0000.15,-000.17,0000.41,17.5,24.5,,00.0,0645.0,31.0
2021-03-09T20:31:00Z,00000200,01000000,-000.30,-000.04,0000.12,-000.38,0000.01,-000.03,0000.16,0000.11,-000.19,17.6,24.6,,00.0,0645.0,31.0
2021-03-09T20:32:00Z,00000200,01000000,0000.09,0000.13,-000.10,-000.10,0000.07,0000.12,0000.12,0000.43,0000.52,17.7,24.6,,00.0,0645.0,31.0
2021-03-09T20:33:00Z,00000200,01000000,-000.12,0000.04,-000.10,-000.04,-000.03,0000.06,0000.00,-000.25,-000.27,17.7,24.6,,00.0,0645.0,31.0
2021-03-09T20:34:00Z,00000200,01000000,0000.07,-000.06,0000.00,-000.33,-000.11,-000.05,0000.04,0000.02,-000.19,17.7,24.6,,00.0,0645.0,31.0
2021-03-09T20:35:00Z,00000200,01000000,0000.00,0000.17,-000.06,-000.03,-000.06,0000.10,0000.13,0000.61,0000.32,17.7,24.6,,00.0,0645.0,31.0
2021-03-09T20:36:00Z,00000200,01000000,-000.07,0000.02,-000.16,0000.09,0000.13,0000.04,-000.44,-000.88,-000.32,17.7,24.6,,00.0,0645.0,31.0
2021-03-09T20:37:00Z,00000200,01000000,-000.17,0000.13,-000.27,-000.11,0000.08,0000.17,-000.50,-000.42,-000.22,17.6,24.6,,00.0,0645.0,31.0
2021-03-09T20:38:00Z,00000200,01000000,-000.39,-000.03,-000.01,0000.24,0000.25,0000.45,-000.71,-000.11,-000.42,17.6,24.6,,00.0,0645.0,31.0
2021-03-09T20:39:00Z,00000200,01000000,0000.02,0000.62,-000.15,0000.05,0000.12,-000.17,0000.02,-000.47,-000.33,17.5,24.6,,00.0,0645.0,30.9
2021-03-09T20:40:00Z,00000200,01000000,-000.46,0000.14,-000.02,-000.00,0000.05,0000.12,-000.04,-000.22,-000.06,17.5,24.6,,00.0,0645.0,31.0
2021-03-09T20:41:00Z,00000200,01000000,-000.66,0000.06,-000.08,-000.04,-000.00,-000.07,0000.27,0000.62,0000.32,17.5,24.6,,00.0,0645.0,31.0
2021-03-09T20:42:00Z,00000200,01000000,0000.25,0000.08,0000.01,0000.13,0000.08,0000.02,0000.92,0000.68,0000.81,17.4,24.6,,00.0,0644.9,30.9
2021-03-09T20:43:00Z,00000200,01000000,-000.40,0000.22,0000.04,-000.21,0000.21,-000.11,0000.71,0000.44,0000.36,17.4,24.5,,00.0,0644.9,30.9
2021-03-09T20:44:00Z,00000200,01000000,-000.54,-000.15,-000.25,-000.25,0000.35,0000.07,0000.86,0001.24,0000.34,17.4,24.5,,00.0,0644.9,30.9
2021-03-09T20:45:00Z,00000200,01000000,0000.27,0000.16,-000.15,-000.06,0000.04,0000.18,0000.55,0000.52,0000.60,17.5,24.5,,00.0,0644.8,31.0
2021-03-09T20:46:00Z,00000200,01000000,-000.47,0000.31,0000.05,-000.24,0000.09,0000.06,0000.19,-000.01,0000.27,17.6,24.5,,00.0,0644.8,31.0
2021-03-09T20:47:00Z,00000200,01000000,-000.26,0000.14,-000.10,0000.21,0000.10,0000.10,0000.16,-000.03,0000.21,17.6,24.6,,00.0,0644.8,31.0
2021-03-09T20:48:00Z,00000200,01000000,0000.25,0000.12,0000.08,0000.12,-000.13,0000.03,0000.62,0000.14,0000.03,17.7,24.6,,00.0,0644.9,31.0
2021-03-09T20:49:00Z,00000200,01000000,0000.02,0000.10,-000.17,0000.06,0000.05,0000.03,-000.14,0000.55,0000.20,17.8,24.6,,00.0,0644.9,31.0
2021-03-09T20:50:00Z,00000200,01000000,-000.17,-000.17,-000.04,0000.25,0000.36,0000.15,-000.09,-000.25,0000.08,17.8,24.7,,00.0,0644.9,31.0
2021-03-09T20:51:00Z,00000200,01000000,-000.28,0000.07,-000.12,0000.20,0000.14,0000.01,0000.08,-000.01,-000.24,17.8,24.7,,00.0,0644.9,31.0
2021-03-09T20:52:00Z,00000200,01000000,-000.04,0000.24,-000.05,-000.32,0000.03,0000.06,-000.32,0000.18,0000.06,17.8,24.7,,00.0,0644.9,31.0
2021-03-09T20:53:00Z,00000200,01000000,0000.20,0000.09,-000.08,-000.08,0000.20,0000.18,0000.35,0000.01,0000.50,17.7,24.7,,00.0,0644.9,31.0
2021-03-09T20:54:00Z,00000200,01000000,0000.25,0000.30,-000.26,0000.09,-000.01,-000.22,-000.03,-000.04,-000.30,17.7,24.6,,00.0,0644.9,31.0
2021-03-09T20:55:00Z,00000200,01000000,-000.13,-000.13,-000.07,-000.46,0000.21,0000.23,-000.60,-000.16,-000.46,17.6,24.6,,00.0,0644.9,31.0
2021-03-09T20:56:00Z,00000200,01000000,0000.18,0000.03,-000.12,0000.55,0000.06,0000.01,0000.19,-000.22,-000.01,17.6,24.6,,00.0,0644.9,31.0
2021-03-09T20:57:00Z,00000200,41010000,,,,,,,0000.91,0000.86,0000.66,17.6,24.7,,00.0,0644.9,31.0
2021-03-09T20:58:00Z,00000200,61000000,,,,,,,-000.90,-000.78,-000.34,17.2,24.7,,00.0,0644.0,30.9
2021-03-09T20:59:00Z,00000200,21000000,,,,,,,-000.10,-000.46,-000.58,17.2,24.8,,00.0,0643.9,30.9
